Retour au catalogue

FENGYUN 1C DEB

ActifLEO
NORAD 32178·DEBRIS·🇨🇳 China

Lancé May 10, 1999 depuis Taiyuan Satellite Launch Center

Loading…

Prochains Passages (prochaines 24 heures)

TLE

FraisSource: Space-Track

Époque: Sep 14, 2026, 08:56 UTC

1 32178U 99025CTY 26257.37277648  .00001175  00000-0  51299-3 0  9995
2 32178 100.2895 310.4620 0092211 284.2423  74.8523 14.24112864679255

Suivez FENGYUN 1C DEB en temps réel avec AllMySat

Download on the App Store